| time (UTC) | temp C | wind direction | speed KPH | gust KPH | rain 1hr cm | rain 24hr cm | rain mn cm | humidity % | barometer mb |
| 20260506072916 | 8 | 0.0 | 0.0 | 0.00 | 0.00 | 0.00 | 95 | ||
| 20260506071917 | 8 | 0.0 | 0.0 | 0.00 | 0.00 | 0.00 | 95 | ||
| 20260506070913 | 8 | 0.0 | 0.0 | 0.00 | 0.00 | 0.00 | 96 | ||
| 20260506061912 | 7 | 0.0 | 0.0 | 0.00 | 0.00 | 0.00 | 98 | ||
| 20260506060913 | 6 | 0.0 | 0.0 | 0.00 | 0.00 | 0.00 | 98 | ||
| 20260506050917 | 6 | 0.0 | 0.0 | 0.00 | 0.00 | 0.00 | 99 | ||
| 20260506044914 | 6 | 0.0 | 0.0 | 0.00 | 0.00 | 0.00 | 98 | ||
| 20260506043912 | 6 | 0.0 | 0.0 | 0.00 | 0.00 | 0.00 | 98 | ||
| 20260506042912 | 6 | 0.0 | 0.0 | 0.00 | 0.00 | 0.00 | 98 | ||
| 20260506041913 | 6 | 0.0 | 0.0 | 0.00 | 0.00 | 0.00 | 98 | ||
| 20260506040912 | 6 | 0.0 | 0.0 | 0.00 | 0.00 | 0.00 | 98 | ||
| 20260506035913 | 6 | 0.0 | 0.0 | 0.00 | 0.00 | 0.00 | 98 | ||
| 20260506034912 | 6 | 0.0 | 0.0 | 0.00 | 0.00 | 0.00 | 98 | ||
| 20260506033912 | 7 | 0.0 | 0.0 | 0.00 | 0.00 | 0.00 | 97 | ||
| 20260506032912 | 7 | 0.0 | 0.0 | 0.00 | 0.00 | 0.00 | 97 | ||
| 20260506031912 | 7 | 0.0 | 0.0 | 0.00 | 0.00 | 0.00 | 97 | ||
| 20260506030913 | 7 | 0.0 | 0.0 | 0.00 | 0.00 | 0.00 | 96 | ||
| 20260506025914 | 7 | 0.0 | 0.0 | 0.00 | 0.00 | 0.00 | 96 | ||
| 20260506024912 | 7 | 0.0 | 0.0 | 0.00 | 0.00 | 0.00 | 96 | ||
| 20260506023912 | 7 | 0.0 | 0.0 | 0.00 | 0.00 | 0.00 | 95 | ||
| 20260506022913 | 7 | 0.0 | 0.0 | 0.00 | 0.00 | 0.00 | 95 | ||
| 20260506021912 | 8 | 0.0 | 0.0 | 0.00 | 0.00 | 0.00 | 95 | ||
| 20260506020912 | 8 | 0.0 | 0.0 | 0.00 | 0.00 | 0.00 | 95 | ||
| 20260506015914 | 8 | 0.0 | 0.0 | 0.00 | 0.00 | 0.00 | 94 | ||
| 20260506014913 | 8 | 0.0 | 0.0 | 0.00 | 0.00 | 0.00 | 94 | ||
| 20260506013912 | 8 | 0.0 | 0.0 | 0.00 | 0.00 | 0.00 | 94 | ||
| 20260506011912 | 8 | 0.0 | 0.0 | 0.00 | 0.00 | 0.00 | 93 | ||
| 20260506005914 | 8 | 0.0 | 0.0 | 0.00 | 0.00 | 0.00 | 93 | ||
| 20260506004914 | 8 | 0.0 | 0.0 | 0.00 | 0.00 | 0.00 | 93 | ||
| 20260506003913 | 8 | 0.0 | 0.0 | 0.00 | 0.00 | 0.00 | 92 | ||
| 20260506000913 | 9 | 0.0 | 0.0 | 0.00 | 0.00 | 0.00 | 91 | ||
| 20260505235913 | 9 | 0.0 | 0.0 | 0.00 | 0.00 | 0.00 | 91 | ||
| 20260505234911 | 9 | 0.0 | 0.0 | 0.00 | 0.00 | 0.00 | 90 | ||
| 20260505230913 | 10 | 0.0 | 0.0 | 0.00 | 0.00 | 0.00 | 88 | ||
| 20260505225913 | 10 | 0.0 | 0.0 | 0.00 | 0.00 | 0.00 | 88 | ||
| 20260505224913 | 10 | 0.0 | 0.0 | 0.00 | 0.00 | 0.00 | 87 | ||
| 20260505223915 | 10 | 0.0 | 0.0 | 0.00 | 0.00 | 0.00 | 87 | ||
| 20260505222914 | 10 | 0.0 | 0.0 | 0.00 | 0.00 | 0.00 | 86 | ||
| 20260505221913 | 10 | 0.0 | 0.0 | 0.00 | 0.00 | 0.00 | 86 | ||
| 20260505215912 | 10 | 0.0 | 0.0 | 0.00 | 0.00 | 0.00 | 83 | ||
| 20260505214913 | 10 | 0.0 | 0.0 | 0.00 | 0.00 | 0.00 | 83 | ||
| 20260505213912 | 10 | 0.0 | 0.0 | 0.00 | 0.00 | 0.00 | 82 | ||
| 20260505212912 | 10 | 0.0 | 0.0 | 0.00 | 0.00 | 0.00 | 78 | ||
| 20260505211912 | 10 | 0.0 | 0.0 | 0.00 | 0.00 | 0.00 | 78 | ||
| 20260505210912 | 10 | 0.0 | 0.0 | 0.00 | 0.00 | 0.00 | 78 | ||
| 20260505205913 | 10 | 0.0 | 0.0 | 0.00 | 0.00 | 0.00 | 78 | ||
| 20260505204912 | 10 | 0.0 | 0.0 | 0.00 | 0.00 | 0.00 | 74 | ||
| 20260505202914 | 11 | 0.0 | 0.0 | 0.00 | 0.00 | 0.00 | 76 | ||
| 20260505201912 | 11 | 0.0 | 0.0 | 0.00 | 0.00 | 0.00 | 72 | ||
| 20260505200913 | 11 | 0.0 | 0.0 | 0.00 | 0.00 | 0.00 | 74 | ||
| 20260505195913 | 11 | 0.0 | 0.0 | 0.00 | 0.00 | 0.00 | 71 | ||
| 20260505194913 | 12 | 0.0 | 0.0 | 0.00 | 0.00 | 0.00 | 74 | ||
| 20260505193913 | 12 | 0.0 | 0.0 | 0.00 | 0.00 | 0.00 | 71 | ||
| 20260505192912 | 12 | 0.0 | 0.0 | 0.00 | 0.00 | 0.00 | 68 | ||
| 20260505191913 | 12 | 0.0 | 0.0 | 0.00 | 0.00 | 0.00 | 68 | ||
| 20260505190914 | 12 | 0.0 | 0.0 | 0.00 | 0.00 | 0.00 | 67 | ||
| 20260505185913 | 13 | 0.0 | 0.0 | 0.00 | 0.00 | 0.00 | 64 | ||
| 20260505184913 | 13 | 0.0 | 0.0 | 0.00 | 0.00 | 0.00 | 61 | ||
| 20260505183912 | 13 | 0.0 | 0.0 | 0.00 | 0.00 | 0.00 | 59 | ||
| 20260505181913 | 15 | 0.0 | 0.0 | 0.00 | 0.00 | 0.00 | 60 | ||
| 20260505180912 | 15 | 0.0 | 0.0 | 0.00 | 0.00 | 0.00 | 62 | ||
| 20260505175912 | 15 | 0.0 | 0.0 | 0.00 | 0.00 | 0.00 | 61 | ||
| 20260505173912 | 16 | 0.0 | 0.0 | 0.00 | 0.00 | 0.00 | 60 | ||
| 20260505170915 | 16 | 0.0 | 0.0 | 0.00 | 0.00 | 0.00 | 59 | ||
| 20260505165913 | 16 | 0.0 | 0.0 | 0.00 | 0.00 | 0.00 | 60 | ||
| 20260505164913 | 17 | 0.0 | 0.0 | 0.00 | 0.00 | 0.00 | 59 | ||
| 20260505163914 | 17 | 0.0 | 0.0 | 0.00 | 0.00 | 0.00 | 57 | ||
| 20260505160912 | 20 | 0.0 | 0.0 | 0.00 | 0.00 | 0.00 | 53 | ||
| 20260505152912 | 21 | 0.0 | 0.0 | 0.00 | 0.00 | 0.00 | 51 | ||
| 20260505151913 | 21 | 0.0 | 0.0 | 0.00 | 0.00 | 0.00 | 50 | ||
| 20260505124913 | 26 | 0.0 | 0.0 | 0.00 | 0.00 | 0.00 | 54 | ||
| 20260505123911 | 25 | 0.0 | 0.0 | 0.00 | 0.00 | 0.00 | 57 | ||
| 20260505120912 | 22 | 0.0 | 0.0 | 0.00 | 0.00 | 0.00 | 55 | ||
| 20260505114913 | 21 | 0.0 | 0.0 | 0.00 | 0.00 | 0.00 | 57 | ||
| 20260505113913 | 21 | 0.0 | 0.0 | 0.00 | 0.00 | 0.00 | 58 | ||
| 20260505112913 | 21 | 0.0 | 0.0 | 0.00 | 0.00 | 0.00 | 61 | ||
| 20260505111914 | 22 | 0.0 | 0.0 | 0.00 | 0.00 | 0.00 | 58 | ||
| 20260505110914 | 22 | 0.0 | 0.0 | 0.00 | 0.00 | 0.00 | 54 | ||
| 20260505101912 | 20 | 0.0 | 0.0 | 0.00 | 0.00 | 0.00 | 72 | ||
| 20260505100913 | 19 | 0.0 | 0.0 | 0.00 | 0.00 | 0.00 | 79 | ||
| 20260505095912 | 18 | 0.0 | 0.0 | 0.00 | 0.00 | 0.00 | 80 | ||
| 20260505093913 | 16 | 0.0 | 0.0 | 0.00 | 0.00 | 0.00 | 85 | ||
| 20260505092913 | 16 | 0.0 | 0.0 | 0.00 | 0.00 | 0.00 | 88 | ||
| 20260505091912 | 16 | 0.0 | 0.0 | 0.00 | 0.00 | 0.00 | 89 | ||
| 20260505090912 | 16 | 0.0 | 0.0 | 0.00 | 0.00 | 0.00 | 90 | ||
| 20260505085912 | 16 | 0.0 | 0.0 | 0.00 | 0.00 | 0.00 | 92 | ||
| 20260505084912 | 15 | 0.0 | 0.0 | 0.00 | 0.00 | 0.00 | 92 | ||
| 20260505083912 | 15 | 0.0 | 0.0 | 0.00 | 0.00 | 0.00 | 93 | ||
| 20260505082912 | 14 | 0.0 | 0.0 | 0.00 | 0.00 | 0.00 | 95 | ||
| 20260505081912 | 13 | 0.0 | 0.0 | 0.00 | 0.00 | 0.00 | 96 | ||
| 20260505080913 | 13 | 0.0 | 0.0 | 0.00 | 0.00 | 0.00 | 97 | ||
| 20260505075914 | 12 | 0.0 | 0.0 | 0.00 | 0.00 | 0.00 | 99 | ||
| 20260505074914 | 11 | 0.0 | 0.0 | 0.00 | 0.00 | 0.00 | 99 | ||
| 20260505073913 | 11 | 0.0 | 0.0 | 0.00 | 0.00 | 0.00 | 99 |